| time (UTC) | temp F | wind direction | speed knots | gust knots | rain 1hr in | rain 24hr in | rain mn in | humidity % | barometer mb |
| 20260504120108 | 73 | 172 | 5.2 | 10.4 | 0.00 | 0.13 | 0.13 | 77 | 1011.6 |
| 20260504100111 | 68 | 196 | 2.6 | 6.1 | 0.00 | 0.13 | 0.13 | 85 | 1012.8 |
| 20260504081601 | 63 | 0 | 0.9 | 3.5 | 0.00 | 0.13 | 0.13 | 96 | 1013.0 |
| 20260504050110 | 61 | 44 | 4.3 | 6.1 | 0.00 | 0.11 | 0.11 | 97 | 1012.6 |
| 20260504044554 | 62 | 24 | 1.7 | 5.2 | 0.00 | 0.11 | 0.11 | 97 | 1012.4 |
| 20260504043059 | 61 | 28 | 2.6 | 7.0 | 0.00 | 0.11 | 0.11 | 97 | 1012.3 |
| 20260504041551 | 61 | 41 | 3.5 | 7.0 | 0.00 | 0.11 | 0.11 | 97 | 1012.4 |
| 20260504040057 | 61 | 63 | 4.3 | 7.8 | 0.00 | 0.11 | 0.11 | 97 | 1012.5 |
| 20260504034555 | 61 | 24 | 4.3 | 8.7 | 0.00 | 0.11 | 0.11 | 97 | 1012.5 |
| 20260504033100 | 61 | 29 | 3.5 | 7.8 | 0.00 | 0.11 | 0.11 | 97 | 1012.6 |
| 20260504031552 | 61 | 27 | 3.5 | 6.1 | 0.00 | 0.11 | 0.11 | 96 | 1012.8 |
| 20260504030051 | 61 | 36 | 3.5 | 7.0 | 0.00 | 0.11 | 0.11 | 96 | 1012.9 |
| 20260504024558 | 62 | 44 | 5.2 | 7.8 | 0.00 | 0.11 | 0.11 | 96 | 1012.9 |
| 20260504023055 | 62 | 21 | 4.3 | 6.1 | 0.01 | 0.11 | 0.11 | 96 | 1013.0 |
| 20260504021557 | 63 | 20 | 3.5 | 5.2 | 0.07 | 0.11 | 0.11 | 96 | 1013.0 |
| 20260504020103 | 63 | 58 | 1.7 | 3.5 | 0.09 | 0.11 | 0.11 | 96 | 1013.1 |
| 20260504014553 | 63 | 183 | 0.0 | 2.6 | 0.10 | 0.11 | 0.11 | 96 | 1013.1 |
| 20260504013050 | 63 | 0 | 0.0 | 0.0 | 0.09 | 0.09 | 0.09 | 96 | 1013.2 |
| 20260504011550 | 63 | 0 | 0.0 | 3.5 | 0.03 | 0.03 | 0.03 | 95 | 1013.2 |
| 20260504010047 | 64 | 78 | 0.0 | 2.6 | 0.01 | 0.01 | 0.01 | 95 | 1013.2 |
| 20260504004551 | 64 | 0 | 0.9 | 1.7 | 0.00 | 0.00 | 0.00 | 95 | 1013.4 |
| 20260504003049 | 64 | 0 | 0.0 | 0.0 | 0.00 | 0.00 | 0.00 | 95 | 1013.3 |
| 20260504001553 | 64 | 0 | 0.0 | 3.5 | 0.00 | 0.00 | 0.00 | 94 | 1013.5 |
| 20260504000056 | 64 | 41 | 1.7 | 3.5 | 0.00 | 0.00 | 0.00 | 94 | 1013.3 |
| 20260503234549 | 64 | 58 | 1.7 | 5.2 | 0.00 | 0.00 | 0.00 | 93 | 1013.5 |
| 20260503233044 | 64 | 53 | 3.5 | 5.2 | 0.00 | 0.00 | 0.00 | 92 | 1013.6 |
| 20260503231552 | 64 | 27 | 0.9 | 3.5 | 0.00 | 0.00 | 0.00 | 92 | 1013.8 |
| 20260503224557 | 64 | 41 | 2.6 | 5.2 | 0.00 | 0.00 | 0.00 | 92 | 1013.8 |
| 20260503223048 | 64 | 32 | 1.7 | 4.3 | 0.00 | 0.00 | 0.00 | 91 | 1014.0 |
| 20260503221556 | 65 | 31 | 2.6 | 5.2 | 0.00 | 0.00 | 0.00 | 91 | 1014.1 |
| 20260503220048 | 65 | 59 | 1.7 | 3.5 | 0.00 | 0.00 | 0.00 | 90 | 1014.1 |
| 20260503214551 | 65 | 85 | 2.6 | 5.2 | 0.00 | 0.00 | 0.00 | 90 | 1014.3 |
| 20260503213059 | 65 | 64 | 3.5 | 5.2 | 0.00 | 0.00 | 0.00 | 90 | 1014.4 |
| 20260503211609 | 65 | 94 | 2.6 | 7.0 | 0.00 | 0.00 | 0.00 | 91 | 1014.4 |
| 20260503210053 | 65 | 70 | 2.6 | 6.1 | 0.00 | 0.00 | 0.00 | 91 | 1014.2 |
| 20260503204558 | 65 | 84 | 3.5 | 7.8 | 0.00 | 0.00 | 0.00 | 90 | 1014.3 |
| 20260503203052 | 65 | 84 | 2.6 | 6.1 | 0.00 | 0.00 | 0.00 | 90 | 1014.1 |
| 20260503201552 | 65 | 74 | 1.7 | 7.0 | 0.00 | 0.00 | 0.00 | 90 | 1013.9 |
| 20260503200106 | 64 | 75 | 4.3 | 7.0 | 0.00 | 0.00 | 0.00 | 90 | 1013.8 |
| 20260503194601 | 65 | 63 | 3.5 | 6.1 | 0.00 | 0.00 | 0.00 | 90 | 1013.4 |
| 20260503193101 | 64 | 86 | 2.6 | 6.1 | 0.00 | 0.00 | 0.00 | 90 | 1013.2 |
| 20260503191549 | 65 | 99 | 2.6 | 7.8 | 0.00 | 0.00 | 0.00 | 89 | 1012.7 |
| 20260503190051 | 65 | 71 | 3.5 | 7.8 | 0.00 | 0.00 | 0.00 | 89 | 1012.6 |
| 20260503184601 | 65 | 95 | 5.2 | 8.7 | 0.00 | 0.00 | 0.00 | 88 | 1012.7 |
| 20260503183050 | 65 | 121 | 4.3 | 9.6 | 0.00 | 0.00 | 0.00 | 87 | 1012.5 |
| 20260503181609 | 65 | 72 | 5.2 | 10.4 | 0.00 | 0.00 | 0.00 | 87 | 1012.4 |
| 20260503180111 | 65 | 75 | 6.1 | 9.6 | 0.00 | 0.00 | 0.00 | 86 | 1012.4 |
| 20260503174600 | 65 | 89 | 5.2 | 10.4 | 0.00 | 0.00 | 0.00 | 85 | 1012.4 |
| 20260503173059 | 66 | 89 | 4.3 | 9.6 | 0.00 | 0.00 | 0.00 | 86 | 1012.2 |
| 20260503171554 | 66 | 88 | 5.2 | 10.4 | 0.00 | 0.00 | 0.00 | 84 | 1012.0 |